Home   Weather   Kenora   Past weeks
Flag for Canada

Past Weather in Kenora, Ontario, Canada — Yesterday and Last 2 Weeks

Now
36 °F

Snow flurries. Fog.


Feels Like: 28 °F
Forecast: N/A
Wind: 10 mph from Northwest

Location: Kenora

Current Time: Oct 23, 2019 at 4:26:57 pm

Latest Report: Oct 23, 2019 at 4:00 pm


Visibility: 6 mi

Pressure: 29.95 "Hg

Humidity: 81%

Dew Point: 30 °F

Location of KenoraLocation

Past Weather in Kenora — Graph

°F

Kenora Temperature Yesterday

Maximum temperature yesterday: 43 °F (at 12:00 am)
Minimum temperature yesterday: 32 °F (at 8:07 pm)
Average temperature yesterday: 37 °F

High & Low Weather Summary for the Past Weeks

 TemperatureHumidityPressure
High64 °F (Oct 8, 3:00 pm)100% (Oct 9, 9:00 pm)30.15 "Hg (Oct 9, 9:00 pm)
Low30 °F (Oct 12, 3:12 am)48% (Oct 20, 3:00 pm)29.35 "Hg (Oct 12, 2:00 am)
Average40 °F88%29.73 "Hg
* Reported Oct 8 3:00 pm — Oct 23 3:00 pm, Kenora. Weather by CustomWeather, © 2019

Note: Actual official high and low records may vary slightly from our data, if they occured in-between our weather recording intervals... More about our weather records

Advertising

Kenora Weather History for the Previous 24 Hours

Scroll right to see more
 ConditionsComfort  
Time TempWeatherWind HumidityBarometerVisibility
3:00 pm
Wed, Oct 23
34 °FSnow flurries. Mostly cloudy.10 mph87%29.92 "Hg3 mi
2:00 pm34 °FSnow flurries. Mostly cloudy.12 mph93%29.90 "Hg3 mi
1:00 pm32 °FLight snow. Ice fog.15 mph87%29.89 "Hg3 mi
12:30 pm32 °FLight snow. Ice fog.12 mph93%29.88 "Hg6 mi
12:00 pm32 °FLight snow. Ice fog.9 mph93%29.87 "Hg1 mi
11:00 am30 °FLight snow. Ice fog.12 mph100%29.84 "Hg1 mi
10:32 am30 °FLight snow. Ice fog.9 mph100%29.83 "Hg2 mi
10:00 am30 °FLight snow. Ice fog.14 mph93%29.81 "Hg5 mi
9:00 am30 °FLight snow. Ice fog.10 mph93%29.79 "Hg3 mi
8:00 am30 °FLight snow. Ice fog.12 mph93%29.76 "Hg4 mi
7:17 am32 °FLight snow. Ice fog.13 mph93%29.75 "Hg2 mi
7:00 am32 °FLight snow. Mostly cloudy.13 mph93%29.75 "Hg5 mi
6:27 am32 °FLight snow. Ice fog.13 mph93%29.73 "Hg2 mi
6:00 am32 °FLight snow. Ice fog.9 mph93%29.72 "Hg6 mi
5:00 am32 °FLight snow. Ice fog.13 mph93%29.70 "Hg3 mi
4:00 am32 °FLight snow. Ice fog.13 mph93%29.67 "Hg5 mi
3:00 am32 °FLight snow. Ice fog.14 mph93%29.65 "Hg3 mi
2:00 am32 °FLight snow. Ice fog.13 mph100%29.64 "Hg2 mi
1:21 am32 °FLight snow. Ice fog.13 mph100%29.62 "Hg2 mi
1:00 am32 °FLight snow. Ice fog.12 mph100%29.62 "Hg1 mi
12:39 am32 °FLight snow. Ice fog.12 mph100%29.62 "Hg1 mi
12:22 am32 °FLight snow. Ice fog.13 mph100%29.61 "Hg2 mi
12:00 am32 °FLight snow. Ice fog.12 mph100%29.61 "Hg2 mi
11:00 pm
Tue, Oct 22
32 °FLight snow. Ice fog.14 mph100%29.59 "Hg1 mi
10:00 pm32 °FLight snow. Ice fog.12 mph100%29.58 "Hg1 mi
9:00 pm32 °FLight snow. Low clouds.14 mph100%29.57 "Hg1 mi
8:07 pm32 °FLight snow. Low clouds.15 mph100%29.55 "Hg1 mi
7:48 pm34 °FLight rain. Low clouds.15 mph93%29.54 "Hg2 mi
7:00 pm34 °FLight rain. Low clouds.18 mph93%29.53 "Hg3 mi
6:37 pm34 °FLight rain. Low clouds.17 mph93%29.53 "Hg3 mi
6:00 pm34 °FLight rain. Mostly cloudy.16 mph100%29.52 "Hg4 mi
5:00 pm36 °FLight rain. Mostly cloudy.17 mph93%29.49 "Hg8 mi
4:49 pm36 °FLight rain. Mostly cloudy.9 mph93%29.49 "Hg10 mi
4:00 pm36 °FLight snow. Mostly cloudy.16 mph93%29.46 "Hg10 mi
Weather by CustomWeather, © 2019

See weather overview